Location: Wanzleben
(52.0609°N, 11.4408°E)
Time: 02:58:28
(UTC+00:00)

Envisat - Pass Details

Date: 25 November 2020
Orbit: 764 x 766 km, 98.1° (Epoch: 20 January)

Event Time Altitude Azimuth Distance (km) Brightness Sun altitude
Rises 05:38:43 0° 13° (NNE) 3,249 6.2 -10.8°
Reaches altitude 10° 05:41:02 10° 11° (NNE) 2,318 5.4 -10.5°
Maximum altitude 05:46:08 73° 288° (WNW) 807 2.9 -9.7°
Drops below altitude 10° 05:51:10 10° 205° (SSW) 2,300 5.5 -9.0°
Sets 05:53:28 0° 203° (SSW) 3,222 6.2 -8.7°
